Regional Weather Roundup
Issued by NWS Midland/Odessa, TX

Home | Current Version | Previous Version | Text Only | Print | Product List | Glossary On
Versions: 1 2 3 4 5 6 7 8 9 10 11 12 13 14 15 16 17 18 19 20 21 22 23 24 25 26 27 28 29 30 31 32 33 34 35 36 37 38 39 40 41 42 43 44 45 46 47 48 49 50
000
ASUS44 KMAF 180410
RWRMAF
MIDLAND AREA WEATHER ROUNDUP
NATIONAL WEATHER SERVICE MIDLAND TX
1100 PM CDT WED SEP 17 2014

...IN SOUTHWEST TEXAS AND SOUTHEAST NEW MEXICO...

CITY           SKY/WX    TMP DP  RH WIND       PRES   REMARKS
ALPINE         MOCLDY    73  62  70 S13       30.10R
ANDREWS        TSTM      67  67  99 E16       30.03S
ARTESIA        NOT AVBL
BIG SPRING     CLOUDY    74  69  86 NE14      30.00F
CARLSBAD       CLOUDY    72  32  23 NW9       29.98S
DRYDEN           N/A     81  69  67 E6        29.92R
FORT STOCKTON  MOCLDY    76  66  71 SE8       29.97R
GUAD PASS      CLOUDY    68  59  73 NE20      30.11R
HOBBS          PTCLDY    68  68 100 E18G25    30.04R
MARFA          MOCLDY    68  61  77 NE6       30.09R
MIDLAND AIRPK  TSTM      72  71  97 NE17      30.00
MIDLAND INTL   CLOUDY    75  69  81 NE16      29.99R
ODESSA         LGT RAIN  76  67  73 NE15      30.00R
PECOS          CLOUDY    79  65  62 SE9       29.92S
PRESIDIO       FAIR      83  63  50 NE13G18   29.91R
SEMINOLE       CLOUDY    67  66  95 E10       30.04F
SNYDER         CLOUDY    70  69  96 E9        29.99F
WINK           MOCLDY    81  64  56 SE8       29.93S
$$
...OTHER STATIONS IN TEXAS...

CITY           SKY/WX    TMP DP  RH WIND       PRES   REMARKS
ABILENE        CLOUDY    74  70  87 SE5       29.97S
AMARILLO       CLOUDY    70  63  78 S17       30.03S
AUSTIN         LGT RAIN  78  73  84 SE12      29.91R
BROWNSVILLE    CLEAR     80  77  90 SE6       29.90R
CORPUS CHRISTI MOCLDY    81  77  88 SE8       29.88S
DALLAS FTW     CLOUDY    80  72  76 SE6       29.89R
DEL RIO        CLEAR     83  72  69 E6        29.87R
EL PASO        CLOUDY    69  66  90 NE13      30.01S
HOUSTON INT    PTCLDY    75  74  96 CALM      29.91F
LUBBOCK        CLOUDY    67  65  93 SE13      30.02S
SAN ANGELO     MOCLDY    77  69  76 E5        29.95F
SAN ANTONIO    CLOUDY    83  72  69 SE10      29.91R
WACO           HVY RAIN  74  72  93 E6        29.97R FOG
WICHITA FALLS  NOT AVBL
$$
...OTHER LOCATIONS IN NEW MEXICO...

CITY           SKY/WX    TMP DP  RH WIND       PRES   REMARKS
ALAMAGORDO     LGT RAIN  70  66  88 N3        30.05R
ALBUQUERQUE    CLOUDY    66  59  78 SE3       30.13R
CANNON AFB     MOCLDY    64  64 100 SE5       30.07R
CLOVIS           N/A     64  63  94 S5        30.09R
HOLLOMAN AFB   CLOUDY    69  68  95 NW3       30.03R
ROSWELL        CLOUDY    69  65  86 CALM      30.01S
RUIDOSO        CLOUDY    57  57 100 CALM      30.22S
SANTA FE       CLOUDY    63  48  58 CALM      30.17R
TRUTH OR CONSE LGT RAIN  67  64  90 NW5       30.07S
TUCUMCARI      CLOUDY    69  59  70 S3        30.03R
$$


USA.gov is the U.S. government's official web portal to all federal, state and local government web resources and services.